Weather History for KMHR - June, 2013

Change the Weather History Date:

Thursday, June 6, 2013

  Actual Average Record
Temperature  
Mean Temperature 70 °F -  
Max Temperature 91 °F 83 °F 96 °F (2002)
Min Temperature 50 °F 53 °F 46 °F (2005)
Cooling Degree Days 6    
Growing Degree Days 20 (Base 50)    
Moisture  
Dew Point 51 °F    
Average Humidity 59    
Maximum Humidity 94    
Minimum Humidity 28    
Precipitation  
Precipitation 0.00 in - - ()
Sea Level Pressure  
Sea Level Pressure 29.86 in    
Wind  
Wind Speed 6 mph (South)    
Max Wind Speed 13 mph    
Max Gust Speed -    
Visibility 10 miles    
Events      
Averages and records for this station are not official NWS values.
T = Trace of Precipitation, MM = Missing Value Source: NWS Daily Summary

Daily Weather History Graph

Daily Weather History Graph

Search for Another Location

Airport or City:

Trip Planner

Search our weather history database for the weather conditions in past years. The results will help you decide how hot, cold, wet, or windy it might be!

Date:

Astronomy

Jun. 06, 2013 Rise Set
Actual Time 5:41 AM PDT 8:27 PM PDT
Civil Twilight 5:09 AM PDT 8:58 PM PDT
Nautical Twilight 4:30 AM PDT 9:38 PM PDT
Astronomical Twilight 3:45 AM PDT 10:22 PM PDT
Moon 4:24 AM PDT (6/6) 6:54 PM PDT (6/6)
Length of Visible Light 15h 48m
Length of Day
14h 45m
Waning Crescent, 3% of the Moon is Illuminated
Jun 6
Waning Crescent
Jun 8
New
Jun 16
First Quarter
Jun 23
Full
Jun 29
Last Quarter

Hourly Weather History & Observations

Time (PDT) Temp. Heat Index Dew Point Humidity Pressure Visibility Wind Dir Wind Speed Gust Speed Precip Events Conditions
12:47 AM 55.4 °F - 48.2 °F 77% 29.89 in 10.0 mi South 6.9 mph - N/A   Clear
2:48 AM 53.6 °F - 48.2 °F 82% 29.89 in 10.0 mi SSE 6.9 mph - N/A   Clear
2:55 AM 55.4 °F - 48.2 °F 77% 29.89 in 10.0 mi South 6.9 mph - N/A   Clear
3:47 AM 53.6 °F - 48.2 °F 82% 29.89 in 10.0 mi South 5.8 mph - N/A   Clear
4:55 AM 51.8 °F - 48.2 °F 88% 29.89 in 10.0 mi South 4.6 mph - N/A   Clear
5:45 AM 50.0 °F - 48.2 °F 94% 29.90 in 10.0 mi SSE 5.8 mph - N/A   Clear
6:46 AM 53.6 °F - 50.0 °F 88% 29.90 in 10.0 mi SE 4.6 mph - N/A   Clear
7:46 AM 55.4 °F - 50.0 °F 82% 29.91 in 10.0 mi SSE 3.5 mph - N/A   Clear
8:46 AM 59.0 °F - 50.0 °F 72% 29.91 in 10.0 mi South 5.8 mph - N/A   Clear
9:58 AM 66.2 °F - 50.0 °F 56% 29.91 in 10.0 mi SSW 4.6 mph - N/A   Clear
10:48 AM 68.0 °F - 51.8 °F 56% 29.90 in 10.0 mi SW 5.8 mph - N/A   Clear
11:46 AM 73.4 °F - 51.8 °F 47% 29.89 in 10.0 mi South 4.6 mph - N/A   Clear
12:55 PM 78.8 °F - 53.6 °F 42% 29.87 in 10.0 mi Calm Calm - N/A   Clear
1:45 PM 82.4 °F 81.7 °F 55.4 °F 39% 29.85 in 10.0 mi WSW 4.6 mph - N/A   Clear
2:45 PM 84.2 °F 83.0 °F 55.4 °F 37% 29.83 in 10.0 mi West 5.8 mph - N/A   Partly Cloudy
3:45 PM 87.8 °F 85.7 °F 53.6 °F 31% 29.80 in 10.0 mi Calm Calm - N/A   Partly Cloudy
4:55 PM 91.4 °F 89.1 °F 53.6 °F 28% 29.78 in 10.0 mi Calm Calm - N/A   Scattered Clouds
5:45 PM 91.4 °F 89.4 °F 55.4 °F 29% 29.77 in 10.0 mi Calm Calm - N/A   Scattered Clouds
7:45 PM 82.4 °F 81.7 °F 55.4 °F 39% 29.77 in 10.0 mi SSW 12.7 mph - N/A   Scattered Clouds
8:45 PM 75.2 °F - 53.6 °F 47% 29.78 in 10.0 mi SSW 11.5 mph - N/A   Partly Cloudy
9:45 PM 68.0 °F - 51.8 °F 56% 29.81 in 10.0 mi SSW 6.9 mph - N/A   Clear